New Roads False River Regiona, LA

12:42 AM CST on November 13, 2019 (GMT -0600)
False River

Weather History for KHZR - September, 2019

Change the Weather History Date:

Tuesday, September 17, 2019

  Actual Average (WUND) Record (WUND)
Temperature  
Mean Temperature 82 °F -  
Max Temperature 91 °F - - (-1)
Min Temperature 73 °F - - (-1)
Cooling Degree Days 17    
Growing Degree Days 32 (Base 50)    
Moisture  
Dew Point 74 °F    
Average Humidity 85    
Maximum Humidity 100    
Minimum Humidity 52    
Precipitation  
Precipitation 0.01 in - - ()
Sea Level Pressure  
Sea Level Pressure 29.99 in    
Wind  
Wind Speed 2 mph ()    
Max Wind Speed 10 mph    
Max Gust Speed 16 mph    
Visibility 10.0 miles    
Events Rain , Thunderstorm    
Averages and records for this station are not official NWS values.
T = Trace of Precipitation, MM = Missing Value Source: Averaged Metar Reports

Daily Weather History Graph

Daily Weather History Graph

Search for Another Location

Airport or City:

Astronomy

Sep. 17, 2019 Rise Set
Actual Time 6:51 AM CDT 7:09 PM CDT
Civil Twilight 6:27 AM CDT 7:33 PM CDT
Nautical Twilight 5:58 AM CDT 8:01 PM CDT
Astronomical Twilight 5:30 AM CDT 8:29 PM CDT
Moon 9:24 PM CDT (9/17) 9:45 AM CDT (9/17)
Length of Visible Light 13h 06m
Length of Day
12h 17m
Waning Gibbous, 89% of the Moon is Illuminated
Sep 17
Waning Gibbous
Sep 21
Last Quarter
Sep 28
New
Oct 5
First Quarter
Oct 13
Full

Hourly Weather History & Observations

Time (CDT) Temp. Heat Index Dew Point Humidity Pressure Visibility Wind Dir Wind Speed Gust Speed Precip Events Conditions
12:17 AM 75.2 °F - 73.4 °F 94% 29.99 in 10.0 mi Calm Calm - N/A   Clear
12:57 AM 75.2 °F - 73.4 °F 94% 29.98 in 10.0 mi Calm Calm - N/A   Clear
1:19 AM 75.2 °F - 73.4 °F 94% 29.98 in 10.0 mi Calm Calm - N/A   Clear
1:36 AM 75.2 °F - 73.4 °F 94% 29.98 in 10.0 mi Calm Calm - N/A   Clear
1:57 AM 75.2 °F - 75.2 °F 100% 29.97 in 10.0 mi Calm Calm - N/A   Clear
2:17 AM 75.2 °F - 73.4 °F 94% 29.97 in 10.0 mi Calm Calm - N/A   Clear
2:37 AM 75.2 °F - 73.4 °F 94% 29.97 in 10.0 mi Calm Calm - N/A   Clear
2:57 AM 75.2 °F - 73.4 °F 94% 29.96 in 10.0 mi Calm Calm - N/A   Clear
3:39 AM 73.4 °F - 73.4 °F 100% 29.97 in 10.0 mi Calm Calm - N/A   Clear
3:58 AM 73.4 °F - 73.4 °F 100% 29.96 in 10.0 mi Calm Calm - N/A   Clear
4:16 AM 73.4 °F - 73.4 °F 100% 29.97 in 10.0 mi Calm Calm - N/A   Clear
4:37 AM 73.4 °F - 73.4 °F 100% 29.97 in 10.0 mi Calm Calm - N/A   Clear
4:58 AM 73.4 °F - 73.4 °F 100% 29.97 in 10.0 mi ENE 3.5 mph - N/A   Clear
5:18 AM 73.4 °F - 73.4 °F 100% 29.97 in 10.0 mi ENE 3.5 mph - N/A   Clear
5:37 AM 73.4 °F - 73.4 °F 100% 29.98 in 10.0 mi ENE 3.5 mph - N/A   Clear
5:56 AM 73.4 °F - 73.4 °F 100% 29.98 in 10.0 mi Calm Calm - N/A   Clear
6:37 AM 73.4 °F - 73.4 °F 100% 30.00 in 10.0 mi Calm Calm - N/A   Clear
7:16 AM 75.2 °F - 73.4 °F 94% 30.01 in 10.0 mi Calm Calm - N/A   Clear
7:37 AM 75.2 °F - 73.4 °F 94% 30.02 in 10.0 mi ENE 3.5 mph - N/A   Clear
7:58 AM 75.2 °F - 73.4 °F 94% 30.02 in 10.0 mi ENE 3.5 mph - N/A   Clear
8:17 AM 75.2 °F - 75.2 °F 100% 30.02 in 10.0 mi ENE 3.5 mph - N/A   Clear
8:37 AM 75.2 °F - 75.2 °F 100% 30.02 in 10.0 mi East 3.5 mph - N/A   Clear
8:57 AM 77.0 °F - 75.2 °F 94% 30.03 in 10.0 mi ENE 5.8 mph - N/A   Clear
9:17 AM 78.8 °F - 75.2 °F 89% 30.04 in 10.0 mi East 3.5 mph - N/A   Clear
9:37 AM 78.8 °F - 75.2 °F 89% 30.04 in 10.0 mi East 3.5 mph - N/A   Clear
9:56 AM 80.6 °F 86.2 °F 75.2 °F 84% - 10.0 mi East 4.6 mph - N/A   Clear
10:16 AM 82.4 °F 89.5 °F 75.2 °F 79% 30.04 in 10.0 mi East 5.8 mph - N/A   Scattered Clouds
10:57 AM 82.4 °F 89.5 °F 75.2 °F 79% 30.04 in 10.0 mi East 8.1 mph - N/A   Clear
11:18 AM 84.2 °F 92.3 °F 75.2 °F 74% 30.04 in 10.0 mi East 5.8 mph - N/A   Scattered Clouds
11:39 AM 87.8 °F 97.6 °F 75.2 °F 66% 30.03 in 10.0 mi ESE 9.2 mph - N/A   Scattered Clouds
11:57 AM 87.8 °F 97.6 °F 75.2 °F 66% 30.03 in 10.0 mi East 8.1 mph - N/A   Scattered Clouds
12:36 PM 87.8 °F 97.6 °F 75.2 °F 66% 30.02 in 10.0 mi East 8.1 mph - N/A   Scattered Clouds
12:57 PM 89.6 °F 99.8 °F 75.2 °F 62% 30.02 in 10.0 mi East 9.2 mph - N/A   Scattered Clouds
1:17 PM 89.6 °F 98.2 °F 73.4 °F 59% 30.01 in 10.0 mi East 8.1 mph - N/A   Scattered Clouds
1:36 PM 89.6 °F 98.2 °F 73.4 °F 59% 30.00 in 10.0 mi East 6.9 mph - N/A   Scattered Clouds
1:56 PM 89.6 °F 98.2 °F 73.4 °F 59% 30.00 in 10.0 mi East 10.4 mph - N/A   Scattered Clouds
2:19 PM 91.4 °F 98.4 °F 71.6 °F 52% 29.98 in 10.0 mi SE 9.2 mph 16.1 mph N/A   Scattered Clouds
2:37 PM 89.6 °F 98.2 °F 73.4 °F 59% 29.97 in 10.0 mi ESE 5.8 mph - N/A   Scattered Clouds
2:57 PM 89.6 °F 96.2 °F 71.6 °F 55% 29.97 in 10.0 mi SE 5.8 mph - N/A   Scattered Clouds
3:17 PM 91.4 °F 98.4 °F 71.6 °F 52% 29.95 in 10.0 mi SE 8.1 mph - N/A   Scattered Clouds
3:36 PM 89.6 °F 96.2 °F 71.6 °F 55% 29.95 in 10.0 mi ESE 8.1 mph - N/A Thunderstorm Thunderstorm
4:17 PM 75.2 °F - 71.6 °F 89% 29.98 in 10.0 mi NNE 5.8 mph 10.4 mph 0.01 in Rain , Thunderstorm Light Thunderstorms and Rain
4:36 PM 78.8 °F - 73.4 °F 83% 29.97 in 10.0 mi East 3.5 mph - 0.01 in Rain , Thunderstorm Light Thunderstorms and Rain
4:57 PM 78.8 °F - 73.4 °F 83% 29.97 in 10.0 mi SE 6.9 mph - 0.01 in Thunderstorm Unknown
5:17 PM 80.6 °F 84.6 °F 71.6 °F 74% 29.97 in 10.0 mi SE 4.6 mph - N/A   Clear
5:36 PM 80.6 °F 85.4 °F 73.4 °F 79% 29.97 in 10.0 mi SSE 3.5 mph - N/A   Scattered Clouds
5:57 PM 80.6 °F 85.4 °F 73.4 °F 79% 29.96 in 10.0 mi South 4.6 mph - N/A   Clear
6:17 PM 80.6 °F 85.4 °F 73.4 °F 79% 29.97 in 10.0 mi Calm Calm - N/A   Clear
6:57 PM 78.8 °F - 75.2 °F 89% 29.97 in 10.0 mi Calm Calm - N/A   Clear
7:16 PM 78.8 °F - 75.2 °F 89% 29.96 in 10.0 mi ENE 4.6 mph - N/A   Clear
7:37 PM 77.0 °F - 75.2 °F 94% 29.97 in 10.0 mi Calm Calm - N/A   Clear
7:57 PM 78.8 °F - 75.2 °F 89% 29.97 in 10.0 mi SE 4.6 mph - N/A   Clear
8:36 PM 78.8 °F - 73.4 °F 83% 29.99 in 10.0 mi South 3.5 mph - N/A   Clear
8:56 PM 78.8 °F - 75.2 °F 89% 29.98 in 10.0 mi SSE 3.5 mph - N/A   Scattered Clouds
9:18 PM 78.8 °F - 75.2 °F 89% 29.97 in 10.0 mi SSE 3.5 mph - N/A   Clear
9:36 PM 78.8 °F - 75.2 °F 89% 29.97 in 10.0 mi SSE 4.6 mph - N/A   Clear
10:17 PM 75.2 °F - 73.4 °F 94% 29.97 in 10.0 mi Calm Calm - N/A   Clear
10:39 PM 75.2 °F - 75.2 °F 100% 29.98 in 10.0 mi Calm Calm - N/A   Clear
10:57 PM 75.2 °F - 73.4 °F 94% 29.97 in 10.0 mi South 3.5 mph - N/A   Clear
11:37 PM 75.2 °F - 73.4 °F 94% 29.98 in 10.0 mi Calm Calm - N/A   Clear